Scilly, United Kingdom

12:45 PM GMT on November 18, 2017 (GMT +0000)
Saint Mary's

Weather History for EGHE - December, 2013

Change the Weather History Date:

Thursday, December 12, 2013

  Actual Average Record
Temperature  
Mean Temperature 54 °F -  
Max Temperature 55 °F 48 °F 55 °F (2000)
Min Temperature 52 °F 46 °F 42 °F (2014)
Degree Days  
Heating Degree Days 12    
Growing Degree Days 4 (Base 50)    
Moisture  
Dew Point 52 °F    
Average Humidity 88    
Maximum Humidity 94    
Minimum Humidity 78    
Precipitation  
Precipitation 0.00 in - - ()
Sea Level Pressure  
Sea Level Pressure 30.13 in    
Wind  
Wind Speed 24 mph ()    
Max Wind Speed 31 mph    
Max Gust Speed -    
Visibility 5.8 miles    
Events      
Averages and records for this station are not official NWS values.
T = Trace of Precipitation, MM = Missing Value Source: Averaged Metar Reports

Daily Weather History Graph

Daily Weather History Graph

Search for Another Location

Airport or City:

Trip Planner

Search our weather history database for the weather conditions in past years. The results will help you decide how hot, cold, wet, or windy it might be!

Date:

Astronomy

Dec. 12, 2013 Rise Set
Actual Time 8:14 AM GMT 4:23 PM GMT
Civil Twilight 7:36 AM GMT 5:01 PM GMT
Nautical Twilight 6:54 AM GMT 5:43 PM GMT
Astronomical Twilight 6:15 AM GMT 6:22 PM GMT
Moon 1:43 PM GMT (12/12) 3:00 AM GMT (12/12)
Length of Visible Light 9h 25m
Length of Day
8h 09m
Waxing Gibbous, 78% of the Moon is Illuminated
Dec 12
Waxing Gibbous
Dec 17
Full
Dec 25
Last Quarter
Jan 1
New
Jan 8
First Quarter

Hourly Weather History & Observations

Time (GMT) Temp. Dew Point Humidity Pressure Visibility Wind Dir Wind Speed Gust Speed Precip Events Conditions
12:00 AM 53 °F 50 °F 87% 30.18 in 6 mi South 24.2 mph - -  
3:00 AM 55 °F 50 °F 78% 30.16 in 7 mi South 27.6 mph - -  
6:00 AM 55 °F 51 °F 81% 30.15 in 7 mi South 26.5 mph - -  
8:20 AM 55.4 °F 51.8 °F 88% 30.15 in 6.2 mi South 26.5 mph - N/A   Scattered Clouds
8:50 AM 55.4 °F 51.8 °F 88% 30.15 in 6.2 mi South 26.5 mph - N/A   Scattered Clouds
9:00 AM 54 °F 51 °F 87% 30.15 in 6 mi South 26.5 mph - -   Scattered Clouds
9:20 AM 55.4 °F 51.8 °F 88% 30.15 in 6.2 mi South 26.5 mph - N/A   Mostly Cloudy
9:50 AM 55.4 °F 51.8 °F 88% 30.15 in 6.2 mi South 25.3 mph - N/A   Mostly Cloudy
10:20 AM 55.4 °F 51.8 °F 88% 30.15 in 6.2 mi South 27.6 mph - N/A   Mostly Cloudy
10:50 AM 55.4 °F 51.8 °F 88% 30.15 in 6.2 mi South 27.6 mph - N/A   Mostly Cloudy
11:20 AM 55.4 °F 51.8 °F 88% 30.15 in 5.6 mi South 26.5 mph - N/A   Mostly Cloudy
11:50 AM 55.4 °F 51.8 °F 88% 30.15 in 5.0 mi South 26.5 mph - N/A   Mostly Cloudy
12:00 PM 55 °F 51 °F 83% 30.15 in 6 mi South 26.5 mph - -   Light Haze
12:20 PM 55.4 °F 51.8 °F 88% 30.15 in 5.0 mi SSW 26.5 mph - N/A   Mostly Cloudy
1:50 PM 55.4 °F 51.8 °F 88% 30.09 in 5.6 mi South 25.3 mph - N/A   Mostly Cloudy
2:20 PM 53.6 °F 51.8 °F 94% 30.09 in 5.6 mi South 28.8 mph - N/A   Mostly Cloudy
2:50 PM 53.6 °F 51.8 °F 94% 30.09 in 5.6 mi South 28.8 mph - N/A   Scattered Clouds
3:00 PM 54 °F 52 °F 91% 30.11 in 5 mi South 26.5 mph - -   Light Haze
3:20 PM 53.6 °F 51.8 °F 94% 30.09 in 5.6 mi South 28.8 mph - N/A   Scattered Clouds
3:50 PM 53.6 °F 51.8 °F 94% 30.09 in 5.6 mi South 27.6 mph - N/A   Mostly Cloudy
4:20 PM 53.6 °F 51.8 °F 94% 30.09 in 5.6 mi South 26.5 mph - N/A   Mostly Cloudy
6:00 PM 55 °F 51 °F 82% 30.09 in 7 mi South 26.5 mph - -   Mostly Cloudy
9:00 PM 55 °F 52 °F 84% 30.06 in 3 mi SSW 31.1 mph - -   Light Haze